Terug naar catalogus

STARLINK-37572

ActiefCommunicatieVLEO
NORAD 69448·PAYLOAD·🇺🇸 United States

Gelanceerd Jun 8, 2026 vanaf Cape Canaveral Space Force Station

Loading…

Volgende Passages (komende 24 uur)

TLE

VersSource: CelesTrak SupGP

Epoch: Sep 14, 2026, 22:49 UTC

1 69448C 26127F   26257.95118056 -.00018943  00000+0 -55947-3 0  2572
2 69448  53.1573 191.5698 0001212  85.6442 195.0619 15.34412505    13

Volg STARLINK-37572 in realtime met AllMySat

Download on the App Store